Location: Lane
(33.5226°N, 79.8788°W)
Time: 16:56:27
(UTC+00:00)

Transit 2A - Pass Details

Date: 26 September 2022
Orbit: 598 x 959 km, 66.7° (Epoch: 06 December)

Event Time Altitude Azimuth Distance (km) Brightness Sun altitude
Rises 14:56:16 0° 336° (NNW) 2,979 8.7 42.9°
Reaches altitude 10° 14:58:29 10° 338° (NNW) 2,108 8.0 43.2°
Maximum altitude 15:03:16 73° 63° (ENE) 755 6.9 44.0°
Drops below altitude 10° 15:08:33 10° 149° (SSE) 2,325 9.5 44.8°
Sets 15:11:05 0° 151° (SSE) 3,312 10.0 45.1°
